Weather History for PAIL - February, 2013

Change the Weather History Date:

Wednesday, February 20, 2013

  Actual Average Record
Temperature  
Mean Temperature 20 °F -  
Max Temperature 30 °F 22 °F 45 °F (2015)
Min Temperature 10 °F 9 °F -26 °F (1956)
Degree Days  
Heating Degree Days 45    
Moisture  
Dew Point 21 °F    
Average Humidity 92    
Maximum Humidity 100    
Minimum Humidity 80    
Precipitation  
Precipitation 0.01 in - - ()
Snow  
Snow 0.00 in - - ()
Snow Depth 8.00 in    
Sea Level Pressure  
Sea Level Pressure 29.18 in    
Wind  
Wind Speed 5 mph (NW)    
Max Wind Speed 13 mph    
Max Gust Speed -    
Visibility 3 miles    
Events Snow    
Averages and records for this station are not official NWS values.
T = Trace of Precipitation, MM = Missing Value Source: NWS Daily Summary

Daily Weather History Graph

Daily Weather History Graph

Search for Another Location

Airport or City:

Trip Planner

Search our weather history database for the weather conditions in past years. The results will help you decide how hot, cold, wet, or windy it might be!

Date:

Astronomy

Feb. 20, 2013 Rise Set
Actual Time 8:41 AM AKST 6:26 PM AKST
Civil Twilight 7:59 AM AKST 7:08 PM AKST
Nautical Twilight 7:11 AM AKST 7:56 PM AKST
Astronomical Twilight 6:23 AM AKST 8:44 PM AKST
Moon 1:08 PM AKST (2/20) 5:59 AM AKST (2/20)
Length of Visible Light 11h 09m
Length of Day
9h 44m
Waxing Gibbous, 77% of the Moon is Illuminated
Feb 20
Waxing Gibbous
Feb 25
Full
Mar 4
Last Quarter
Mar 11
New
Mar 19
First Quarter

Hourly Weather History & Observations

Time (AKST) Temp. Windchill Dew Point Humidity Pressure Visibility Wind Dir Wind Speed Gust Speed Precip Events Conditions
12:53 AM 30.0 °F 25.2 °F 28.0 °F 92% 29.11 in 10.0 mi NE 4.6 mph - 0.00 in   Overcast
1:53 AM 28.9 °F 25.2 °F 28.0 °F 96% 29.11 in 6.0 mi NNE 3.5 mph - 0.00 in Snow Light Snow
3:09 AM 30.2 °F 26.7 °F 28.4 °F 93% 29.07 in 2.5 mi North 3.5 mph - 0.00 in Snow Light Snow
3:27 AM 30.2 °F 25.4 °F 28.4 °F 93% 29.07 in 3.0 mi North 4.6 mph - 0.00 in Snow Light Snow
3:36 AM 28.4 °F 23.3 °F 28.4 °F 100% 29.07 in 2.5 mi NNW 4.6 mph - 0.00 in Snow Light Snow
3:53 AM 28.9 °F 23.9 °F 28.9 °F 100% 29.08 in 2.5 mi North 4.6 mph - 0.00 in Snow Light Snow
4:08 AM 28.4 °F 22.2 °F 28.4 °F 100% 29.06 in 3.0 mi NNW 5.8 mph - 0.00 in Snow Light Snow
4:22 AM 28.4 °F 23.3 °F 28.4 °F 100% 29.05 in 5.0 mi North 4.6 mph - 0.00 in Snow Light Snow
4:53 AM 28.9 °F 22.8 °F 28.0 °F 96% 29.05 in 9.0 mi NNW 5.8 mph - 0.00 in   Overcast
5:53 AM 30.0 °F 24.1 °F 28.9 °F 96% 29.04 in 9.0 mi NNW 5.8 mph - N/A   Overcast
6:33 AM 28.4 °F 24.6 °F 28.4 °F 100% 29.02 in 2.5 mi NW 3.5 mph - 0.00 in Snow Light Snow
6:53 AM 28.9 °F 22.8 °F 28.9 °F 100% 29.04 in 2.0 mi WNW 5.8 mph - 0.00 in Snow Light Snow
7:53 AM 28.9 °F 25.2 °F 28.9 °F 100% 29.04 in 2.0 mi NW 3.5 mph - 0.01 in Snow Light Snow
8:16 AM 28.4 °F 24.6 °F 28.4 °F 100% 29.03 in 3.0 mi WNW 3.5 mph - 0.00 in Snow Light Snow
8:34 AM 28.4 °F 24.6 °F 28.4 °F 100% 29.04 in 2.5 mi NW 3.5 mph - 0.00 in Snow Light Snow
8:53 AM 28.9 °F 25.2 °F 28.9 °F 100% 29.05 in 1.5 mi NW 3.5 mph - 0.00 in Snow Light Snow
9:23 AM 26.6 °F 21.2 °F 26.6 °F 100% 29.05 in 2.5 mi North 4.6 mph - 0.00 in Snow Light Snow
9:28 AM 26.6 °F 22.6 °F 24.8 °F 93% 29.05 in 3.0 mi North 3.5 mph - 0.00 in Snow Light Snow
9:53 AM 26.1 °F - 24.1 °F 92% 29.08 in 5.0 mi Calm Calm - 0.00 in Snow Light Snow
10:06 AM 26.6 °F - 24.8 °F 93% 29.07 in 1.8 mi Calm Calm - 0.00 in Snow Light Snow
10:53 AM 26.1 °F 21.9 °F 24.1 °F 92% 29.09 in 1.8 mi NNW 3.5 mph - 0.00 in Snow Light Snow
11:46 AM 24.8 °F 19.1 °F 23.0 °F 93% 29.10 in 2.0 mi North 4.6 mph - 0.01 in Snow Light Snow
11:51 AM 26.6 °F 21.2 °F 24.8 °F 93% 29.11 in 1.8 mi North 4.6 mph - 0.01 in Snow Light Snow
11:53 AM 26.1 °F 20.5 °F 24.1 °F 92% 29.12 in 1.5 mi NNW 4.6 mph - 0.01 in Snow Light Snow
12:23 PM 26.6 °F 20.0 °F 24.8 °F 93% 29.12 in 2.5 mi NNW 5.8 mph - 0.00 in Snow Light Snow
12:44 PM 26.6 °F 20.0 °F 24.8 °F 93% 29.13 in 1.8 mi North 5.8 mph - 0.00 in Snow Light Snow
12:51 PM 26.6 °F 21.2 °F 24.8 °F 93% 29.13 in 2.0 mi NNW 4.6 mph - 0.00 in Snow Light Snow
12:53 PM 26.1 °F 21.9 °F 24.1 °F 92% 29.14 in 2.0 mi North 3.5 mph - 0.00 in Snow Light Snow
1:15 PM 26.6 °F 22.6 °F 24.8 °F 93% 29.14 in 3.0 mi North 3.5 mph - 0.00 in Snow Light Snow
1:27 PM 26.6 °F 20.0 °F 24.8 °F 93% 29.15 in 3.0 mi North 5.8 mph - 0.00 in Snow Light Snow
1:33 PM 24.8 °F 19.1 °F 23.0 °F 93% 29.15 in 3.0 mi North 4.6 mph - 0.00 in Snow Light Snow
1:38 PM 26.6 °F 21.2 °F 23.0 °F 86% 29.15 in 3.0 mi North 4.6 mph - 0.00 in Snow Light Snow
1:53 PM 26.1 °F 19.4 °F 23.0 °F 88% 29.16 in 2.0 mi North 5.8 mph - 0.00 in Snow Light Snow
2:03 PM 26.6 °F 20.0 °F 23.0 °F 86% 29.16 in 1.0 mi North 5.8 mph - 0.00 in Snow Light Snow
2:41 PM 26.6 °F 20.0 °F 23.0 °F 86% 29.17 in 1.0 mi North 5.8 mph - 0.00 in Snow Light Snow
2:53 PM 26.1 °F 19.4 °F 23.0 °F 88% 29.19 in 1.0 mi North 5.8 mph - 0.00 in Snow Light Snow
3:01 PM 26.6 °F 21.2 °F 21.2 °F 80% 29.18 in 1.0 mi North 4.6 mph - 0.00 in Snow Light Snow
3:13 PM 26.6 °F 22.6 °F 23.0 °F 86% 29.19 in 1.0 mi North 3.5 mph - 0.00 in Snow Light Snow
3:25 PM 26.6 °F 22.6 °F 24.8 °F 93% 29.19 in 1.0 mi North 3.5 mph - 0.00 in Snow Light Snow
3:41 PM 24.8 °F 20.5 °F 23.0 °F 93% 29.20 in 0.8 mi NNW 3.5 mph - 0.00 in Snow Light Snow
3:58 PM 24.8 °F - 23.0 °F 93% 29.21 in 1.0 mi Calm Calm - 0.00 in Snow Light Snow
4:24 PM 24.8 °F 13.4 °F 21.2 °F 86% 29.22 in 2.0 mi WSW 12.7 mph - 0.00 in Snow Light Snow
4:53 PM 23.0 °F 11.1 °F 19.9 °F 88% 29.24 in 2.0 mi WSW 12.7 mph - 0.00 in Snow Light Snow
5:26 PM 21.2 °F 9.5 °F 19.4 °F 93% 29.25 in 3.0 mi WSW 11.5 mph - 0.00 in Snow Light Snow
5:32 PM 21.2 °F 8.9 °F 17.6 °F 86% 29.25 in 2.5 mi WSW 12.7 mph - 0.00 in Snow Light Snow
5:53 PM 19.0 °F 7.5 °F 17.1 °F 92% 29.28 in 3.0 mi WSW 10.4 mph - 0.00 in Snow Light Snow
6:17 PM 17.6 °F 6.4 °F 15.8 °F 93% 29.28 in 2.5 mi WSW 9.2 mph - 0.01 in Snow Light Snow
6:53 PM 16.0 °F 5.3 °F 14.0 °F 92% 29.31 in 2.5 mi WSW 8.1 mph - 0.01 in Snow Light Snow
7:05 PM 15.8 °F 5.1 °F 14.0 °F 93% 29.30 in 3.0 mi WSW 8.1 mph - 0.00 in Snow Light Snow
7:29 PM 15.8 °F 4.2 °F 12.2 °F 86% 29.31 in 2.5 mi WSW 9.2 mph - 0.00 in Snow Light Snow
7:43 PM 15.8 °F 6.1 °F 12.2 °F 86% 29.31 in 3.0 mi West 6.9 mph - 0.00 in Snow Light Snow
7:53 PM 15.1 °F 7.7 °F 12.9 °F 91% 29.33 in 5.0 mi West 4.6 mph - 0.00 in Snow Light Snow
8:18 PM 14.0 °F 2.9 °F 12.2 °F 93% 29.33 in 3.0 mi WSW 8.1 mph - 0.00 in Snow Light Snow
8:31 PM 14.0 °F 2.0 °F 12.2 °F 93% 29.32 in 2.0 mi WSW 9.2 mph - 0.00 in Snow Light Snow
8:33 PM 14.0 °F 2.0 °F 10.4 °F 86% 29.32 in 1.0 mi West 9.2 mph - 0.00 in Snow Light Snow
8:40 PM 12.2 °F -1.8 °F 10.4 °F 92% 29.32 in 1.5 mi WSW 11.5 mph - 0.00 in Snow Light Snow
8:53 PM 12.9 °F 1.6 °F 10.9 °F 92% 29.34 in 1.5 mi West 8.1 mph - 0.00 in Snow Light Snow
9:01 PM 12.2 °F -0.2 °F 10.4 °F 92% 29.33 in 2.0 mi West 9.2 mph - 0.00 in Snow Light Snow
9:17 PM 12.2 °F 2.9 °F 10.4 °F 92% 29.33 in 2.0 mi WSW 5.8 mph - 0.00 in Snow Light Snow
9:19 PM 12.2 °F 1.7 °F 10.4 °F 92% 29.33 in 3.0 mi West 6.9 mph - 0.00 in Snow Light Snow
9:53 PM 12.0 °F 0.5 °F 10.0 °F 92% 29.35 in 9.0 mi WSW 8.1 mph - 0.00 in Snow Light Snow
10:29 PM 12.2 °F 4.3 °F 10.4 °F 92% 29.35 in 10.0 mi WSW 4.6 mph - 0.00 in   Overcast
10:53 PM 12.9 °F 6.9 °F 10.9 °F 92% 29.37 in 10.0 mi SW 3.5 mph - 0.00 in   Overcast
11:04 PM 12.2 °F 2.9 °F 10.4 °F 92% 29.36 in 10.0 mi WSW 5.8 mph - N/A   Overcast
11:24 PM 14.0 °F 5.1 °F 12.2 °F 93% 29.36 in 10.0 mi West 5.8 mph - N/A   Overcast
11:31 PM 15.8 °F 5.1 °F 12.2 °F 86% 29.36 in 10.0 mi West 8.1 mph - N/A   Overcast
11:53 PM 16.0 °F 2.9 °F 14.0 °F 92% 29.38 in 10.0 mi West 11.5 mph - N/A   Overcast